Namest Nad Oslav, Czech Republic

12:03 PM CET on December 09, 2019 (GMT +0100)
Namest

Weather History for LKNA - August, 2019

Change the Weather History Date:

Tuesday, August 20, 2019

  Actual Average Record
Temperature  
Mean Temperature 70 °F -  
Max Temperature 77 °F - - ()
Min Temperature 63 °F - - ()
Cooling Degree Days 5    
Growing Degree Days 20 (Base 50)    
Moisture  
Dew Point 60 °F    
Average Humidity 68    
Maximum Humidity 88    
Minimum Humidity 48    
Precipitation  
Precipitation 0.20 in - - ()
Sea Level Pressure  
Sea Level Pressure 30.11 in    
Wind  
Wind Speed 4 mph ()    
Max Wind Speed 11 mph    
Max Gust Speed -    
Visibility 15.0 miles    
Events      
T = Trace of Precipitation, MM = Missing Value Source: Averaged Metar Reports

Daily Weather History Graph

Daily Weather History Graph

Search for Another Location

Airport or City:

Astronomy

Aug. 20, 2019 Rise Set
Actual Time 5:53 AM CEST 8:03 PM CEST
Civil Twilight 5:19 AM CEST 8:37 PM CEST
Nautical Twilight 4:36 AM CEST 9:20 PM CEST
Astronomical Twilight 3:47 AM CEST 10:08 PM CEST
Moon 10:19 PM CEST (8/20) 10:36 AM CEST (8/20)
Length of Visible Light 15h 18m
Length of Day
14h 09m
Waning Gibbous, 80% of the Moon is Illuminated
Aug 20
Waning Gibbous
Aug 23
Last Quarter
Aug 30
New
Sep 6
First Quarter
Sep 14
Full

Hourly Weather History & Observations

Time (CEST) Temp. Dew Point Humidity Pressure Visibility Wind Dir Wind Speed Gust Speed Precip Events Conditions
12:00 AM 69 °F 58 °F 60% 30.09 in 31 mi North 4.5 mph - -   Mostly Cloudy
12:00 AM 69.8 °F 59.0 °F 68% 30.12 in - NNE 3.5 mph - N/A   Clear
1:00 AM 67 °F 58 °F 65% 30.09 in 31 mi ENE 2.2 mph - -   Mostly Cloudy
1:00 AM 68.0 °F 59.0 °F 73% 30.12 in - ENE 2.3 mph - N/A   Clear
2:00 AM 66 °F 58 °F 69% 30.10 in 31 mi NNW 6.7 mph - -   Partly Cloudy
2:00 AM 66.2 °F 59.0 °F 78% 30.12 in - NNW 5.8 mph - N/A   Clear
3:00 AM 65 °F 58 °F 73% 30.11 in 31 mi NNW 4.5 mph - -   Clear
3:00 AM 64.4 °F 59.0 °F 83% 30.12 in - North 4.6 mph - N/A   Clear
4:00 AM 64 °F 58 °F 77% 30.12 in 31 mi WNW 4.5 mph - -   Overcast
4:00 AM 62.6 °F 59.0 °F 88% 30.15 in - NW 4.6 mph - N/A   Clear
5:00 AM 64 °F 58 °F 75% 30.12 in 25 mi North 4.5 mph - -   Mostly Cloudy
5:00 AM 62.6 °F 59.0 °F 88% 30.12 in - North 4.6 mph - N/A   Clear
6:00 AM 64 °F 58 °F 75% 30.12 in 31 mi North 4.5 mph - -   Mostly Cloudy
6:00 AM 62.6 °F 59.0 °F 88% 30.15 in - North 4.6 mph - N/A   Clear
7:00 AM 64.4 °F 59.0 °F 83% 30.15 in - NW 6.9 mph - N/A   Clear
8:00 AM 66 °F 59 °F 70% 30.12 in 19 mi NNE 4.5 mph - -   Scattered Clouds
9:00 AM 70 °F 59 °F 61% 30.12 in 19 mi East 6.7 mph - -   Scattered Clouds
9:00 AM 69.8 °F 60.8 °F 73% 30.15 in - East 5.8 mph - N/A   Clear
10:00 AM 72 °F 59 °F 55% 30.11 in 19 mi East 4.5 mph - -   Scattered Clouds
10:00 AM 71.6 °F 60.8 °F 69% 30.15 in - East 5.8 mph - N/A   Clear
11:00 AM 74 °F 60 °F 52% 30.10 in 19 mi East 4.5 mph - -   Scattered Clouds
11:00 AM 73.4 °F 60.8 °F 65% 30.15 in 6.2 mi East 6.9 mph - N/A   Mostly Cloudy
12:00 PM 74 °F 60 °F 51% 30.10 in 19 mi SE 4.5 mph - -   Scattered Clouds
12:00 PM 75.2 °F 60.8 °F 61% 30.15 in 6.2 mi ESE 6.9 mph - N/A   Mostly Cloudy
1:00 PM 75 °F 61 °F 52% 30.09 in 19 mi ESE 6.7 mph - -   Scattered Clouds
1:00 PM 75.2 °F 60.8 °F 61% 30.15 in 6.2 mi ESE 4.6 mph - N/A   Mostly Cloudy
2:00 PM 75 °F 60 °F 51% 30.08 in 19 mi SE 4.5 mph - -   Mostly Cloudy
2:00 PM 75.2 °F 60.8 °F 61% 30.15 in - ESE 4.6 mph - N/A   Clear
3:00 PM 77 °F 61 °F 48% 30.06 in 19 mi SE 8.9 mph - -   Mostly Cloudy
6:00 PM 77.0 °F 60.8 °F 57% 30.09 in - SE 8.1 mph - N/A   Clear
7:00 PM 75 °F 63 °F 58% 30.04 in 19 mi SE 4.5 mph - -   Partly Cloudy
7:00 PM 75.2 °F 62.6 °F 65% 30.09 in - SE 4.6 mph - N/A   Clear
8:00 PM 74 °F 63 °F 59% 30.03 in 12 mi NE 2.2 mph - -   Partly Cloudy
8:00 PM 75.2 °F 64.4 °F 69% 30.09 in - Variable 1.2 mph - N/A   Clear
10:00 PM 68 °F 62 °F 76% 30.04 in 12 mi NNW 6.7 mph - -   Partly Cloudy
10:00 PM 69.8 °F 62.6 °F 78% 30.06 in - North 6.9 mph - N/A   Clear
11:00 PM 65 °F 62 °F 88% 30.05 in 12 mi NNW 11.2 mph - -   Mostly Cloudy